EDUSAT

Satellite information

Favourite Embed

Satellite Type and Status

PAYLOADIN ORBIT

Key statistics

Satellite EDUSAT at a glance.

Uptime

5233

Days in orbit

Revolutions

≈ 14.8

Per day

Orbit

SSO

Sun Synchronous Orbit

Inclination

98.3

Latest

Satellite identification and parameters

Extended collection of information and parameters for EDUSAT.

Object identification

Identified? True

Debris? False

Object name: EDUSAT

International designator: 2011-044A

Object number (NORAD): 37788

Object ID (CCSDS): 37788

Country: ITALY (IT)

Current information (Y/N): Y

RCS size: MEDIUM

Orbital parameters

Period: 97.557 minutes

Inclination: 98.2881 deg

SMA: 7019.928 km

Apoapsis: 666.154 km

Periapsis: 617.432 km

RAAN: 235.7071 deg

Eccentricy: 0.00347027

Argument of periapsis: 355.4849 deg

Mean anomaly: 57.7858 deg

Mean motion: 14.76059181 rev/day

Mean motion (dot): 0.00001886 rev/day2

B* drag term: 0.00027904549 1/REarth

Two-line elements (TLE)

Creation date: Dec. 14, 2025, 3:07 a.m.

Reference frame: TEME

Reference center: EARTH

Epoch: Dec. 13, 2025, 3:56 p.m. UTC

TLE line 0: 0 EDUSAT

TLE line 1: 1 37788U 11044A 25347.66429574 .00001886 00000-0 27905-3 0 9996

TLE line 2: 2 37788 98.2881 235.7071 0034703 355.4849 57.7858 14.76059181769151

Live tracking on map

Real-time ground track for satellite EDUSAT.

In-orbit conjunctions

There are no conjunctions computed for EDUSAT, at the moment. Check back to stay up to date, as we update our databases every day.

Go to all conjunctions

Associated space launch

EDUSAT was lifted into orbit during the mission ‘Dnepr 1 | Sich-2’, on board a Dnepr space rocket.

The launch took place on Aug. 17, 2011, 7:12 a.m. from 370/13.

For more information about the launch, click the button.

Launch to space Dnepr 1 | Sich-2
Dnepr 1 | Sich-2

Agency: N/A

Status: Launch Successful

Launch date: Aug. 17, 2011, 7:12 a.m. UTC

Rocket: Dnepr

Launch pad: 370/13

Location: Dombarovskiy, Russian Federation

...

Latest news about this satellite

There are no fresh news available about this satellite. Check back as we update our databases every day.


Newsletter sign-up

Weekly statistics, charts and insights to help you stay on top of the space industry.